Location: Emporia
(38.4040°N, 96.1810°W)
Time: 03:37:57
(UTC-05:00)

ISS - Visible Passes

Search period start: 28 July 2016 00:00
Search period end: 07 August 2016 00:00
Orbit: 401 x 404 km, 51.6° (Epoch: 28 July)

Date Brightness Start Highest point End Pass type
(mag) Time Alt. Az. Time Alt. Az. Time Alt. Az.
28 Jul -1.3 03:41:16 27° N 03:41:51 29° NNE 03:44:44 10° E visible
28 Jul -2.5 05:15:23 10° WNW 05:18:14 28° SW 05:21:05 10° SSE visible
28 Jul -2.1 21:53:19 10° WSW 21:56:27 43° NW 21:59:35 10° NE visible
28 Jul 0.1 23:32:22 10° NW 23:33:33 11° NNW 23:34:44 10° N visible
29 Jul -0.2 22:38:16 10° WNW 22:40:19 15° NNW 22:42:22 10° NNE visible
30 Jul -0.7 21:44:30 10° W 21:47:09 22° NNW 21:49:48 10° NNE visible
31 Jul 0.1 22:30:25 10° NNW 22:31:14 11° NNW 22:32:05 10° N visible
01 Aug -0.3 21:36:09 10° NW 21:37:59 14° NNW 21:39:49 10° NNE visible
02 Aug 0.1 23:58:58 10° N 23:59:15 10° N 23:59:15 10° N visible
03 Aug 0.1 21:28:40 10° NNW 21:28:55 10° NNW 21:29:09 10° N visible
04 Aug 0.0 23:48:43 10° NNW 23:49:20 12° N 23:49:20 12° N visible
05 Aug -0.4 22:56:18 10° N 22:57:35 12° NNE 22:58:06 11° NNE visible
06 Aug -0.1 23:38:46 10° NNW 23:39:29 14° NNW 23:39:29 14° NNW visible
